GW6315 Weather Reports


time (UTC)temp
F
wind
direction
speed
knots
gust
knots
rain 1hr
in
rain 24hr
in
rain mn
in
humidity
%
barometer
mb
20260502200202 74 20 3.5 5.2 0.00 0.00 0.00 37 1019.0
20260502195700 75 37 7.8 11.3 0.00 0.00 0.00 36 1018.9
20260502195156 74 29 3.5 5.2 0.00 0.00 0.00 38 1018.8
20260502194653 75 24 3.5 7.8 0.00 0.00 0.00 37 1019.1
20260502194150 75 38 4.3 6.1 0.00 0.00 0.00 38 1019.1
20260502193647 74 57 4.3 7.0 0.00 0.00 0.00 38 1019.2
20260502193144 74 35 4.3 10.4 0.00 0.00 0.00 35 1019.1
20260502192638 74 70 7.8 9.6 0.00 0.00 0.00 37 1019.5
20260502192136 74 356 2.6 8.7 0.00 0.00 0.00 37 1019.4
20260502191633 74 10 2.6 7.0 0.00 0.00 0.00 39 1019.3
20260502191131 74 29 5.2 5.2 0.00 0.00 0.00 40 1019.3
20260502190628 74 64 4.3 7.0 0.00 0.00 0.00 38 1019.6
20260502190126 73 40 3.5 7.0 0.00 0.00 0.00 40 1019.2
20260502185620 74 15 4.3 7.0 0.00 0.00 0.00 39 1019.4
20260502185117 73 40 4.3 7.0 0.00 0.00 0.00 40 1019.6
20260502184613 74 55 6.1 9.6 0.00 0.00 0.00 39 1019.6
20260502184108 74 307 5.2 6.1 0.00 0.00 0.00 40 1019.9
20260502183605 74 68 3.5 6.1 0.00 0.00 0.00 40 1019.7
20260502183102 74 55 4.3 6.1 0.00 0.00 0.00 41 1019.9
20260502182557 73 18 3.5 5.2 0.00 0.00 0.00 45 1019.8
20260502182053 73 8 1.7 8.7 0.00 0.00 0.00 43 1019.8
20260502181551 73 68 5.2 9.6 0.00 0.00 0.00 42 1019.9
20260502181049 72 324 3.5 7.0 0.00 0.00 0.00 43 1020.1
20260502180546 72 45 3.5 7.8 0.00 0.00 0.00 44 1020.1
20260502170505 71 16 2.6 6.1 0.00 0.00 0.00 50 1020.2
20260502163949 70 42 7.8 10.4 0.00 0.00 0.00 50 1020.3
20260502163444 69 19 3.5 7.8 0.00 0.00 0.00 54 1020.4
20260502162942 69 27 5.2 7.0 0.00 0.00 0.00 55 1020.1
20260502162439 68 59 3.5 4.3 0.00 0.00 0.00 58 1020.2
20260502161936 68 37 3.5 8.7 0.00 0.00 0.00 56 1020.2
20260502161432 68 31 4.3 8.7 0.00 0.00 0.00 57 1020.4
20260502160930 68 28 2.6 11.3 0.00 0.00 0.00 59 1020.7
20260502160428 67 300 3.5 6.1 0.00 0.00 0.00 57 1020.4
20260502151907 65 37 1.7 5.2 0.00 0.00 0.00 69 1020.4
20260502151402 65 17 3.5 7.8 0.00 0.00 0.00 67 1020.5
20260502150900 64 44 1.7 5.2 0.00 0.00 0.00 69 1020.4
20260502150356 64 5 1.7 3.5 0.00 0.00 0.00 72 1020.3
20260502130745 55 42 3.5 6.1 0.00 0.00 0.00 96 1019.1
20260502130242 54 329 4.3 5.2 0.00 0.00 0.00 96 1018.8
20260502123728 53 331 0.9 2.6 0.00 0.00 0.00 97 1018.8
20260502123225 53 19 1.7 1.7 0.00 0.00 0.00 97 1018.6
20260502122722 53 319 0.9 3.5 0.00 0.00 0.00 97 1018.7
20260502122218 52 347 1.7 1.7 0.00 0.00 0.00 97 1018.5
20260502121717 52 331 1.7 2.6 0.00 0.00 0.00 97 1018.4
20260502121214 52 11 1.7 2.6 0.00 0.00 0.00 97 1018.3
20260502120710 52 333 0.9 2.6 0.00 0.00 0.00 97 1018.2
20260502120207 52 308 1.7 1.7 0.00 0.00 0.00 97 1018.2
20260502115705 52 352 0.9 2.6 0.00 0.00 0.00 97 1018.1
20260502115201 52 344 1.7 2.6 0.00 0.00 0.00 97 1018.0
20260502114657 52 5 1.7 2.6 0.00 0.00 0.00 97 1018.0
20260502114155 52 20 2.6 2.6 0.00 0.00 0.00 97 1018.0
20260502113652 52 6 1.7 3.5 0.00 0.00 0.00 97 1018.0
20260502113150 52 4 0.9 2.6 0.00 0.00 0.00 97 1017.9
20260502112647 52 30 2.6 4.3 0.00 0.00 0.00 97 1017.7
20260502112145 52 7 2.6 3.5 0.00 0.00 0.00 97 1017.8
20260502111642 52 359 0.9 3.5 0.00 0.00 0.00 97 1017.6
20260502111139 52 345 1.7 5.2 0.00 0.00 0.00 97 1017.5
20260502110637 52 6 1.7 4.3 0.00 0.00 0.00 96 1017.4
20260502110134 52 9 4.3 4.3 0.00 0.00 0.00 96 1017.5
20260502105631 52 5 1.7 3.5 0.00 0.00 0.00 96 1017.3
20260502105129 52 21 2.6 4.3 0.00 0.00 0.00 96 1017.4
20260502104626 52 359 0.9 4.3 0.00 0.00 0.00 96 1017.3
20260502104123 52 9 2.6 3.5 0.00 0.00 0.00 96 1017.2
20260502103620 52 338 1.7 3.5 0.00 0.00 0.00 96 1017.2
20260502103119 52 14 1.7 3.5 0.00 0.00 0.00 95 1017.1
20260502102615 52 25 2.6 5.2 0.00 0.00 0.00 95 1016.9
20260502102112 52 29 1.7 4.3 0.00 0.00 0.00 95 1016.9
20260502101610 52 14 2.6 4.3 0.00 0.00 0.00 95 1016.8
20260502101108 52 27 1.7 3.5 0.00 0.00 0.00 95 1016.9
20260502100606 52 19 1.7 3.5 0.00 0.00 0.00 95 1016.8
20260502100104 52 11 0.0 4.3 0.00 0.00 0.00 95 1016.8
20260502091038 52 29 1.7 4.3 0.00 0.00 0.00 95 1016.1
20260502090535 52 358 1.7 3.5 0.00 0.00 0.00 95 1016.2
20260502071429 53 319 1.7 2.6 0.00 0.00 0.00 94 1015.6
20260502070927 53 27 1.7 4.3 0.00 0.00 0.00 93 1015.9
20260502070425 53 281 1.7 5.2 0.00 0.00 0.00 93 1015.6
20260502065924 53 48 2.6 3.5 0.00 0.00 0.00 93 1015.7
20260502065422 53 46 1.7 4.3 0.00 0.00 0.00 93 1015.6
20260502064919 53 66 1.7 5.2 0.00 0.00 0.00 94 1015.8
20260502064417 53 60 1.7 4.3 0.00 0.00 0.00 94 1015.6
20260502063914 53 69 2.6 3.5 0.00 0.00 0.00 94 1016.0
20260502063411 53 60 3.5 4.3 0.00 0.00 0.00 94 1016.1
20260502062909 53 57 2.6 4.3 0.00 0.00 0.00 94 1015.9
20260502062406 53 73 3.5 6.1 0.00 0.00 0.00 94 1016.2
20260502061905 53 37 3.5 4.3 0.00 0.00 0.00 94 1016.1
20260502061403 53 43 1.7 3.5 0.00 0.00 0.00 95 1016.3
20260502060858 53 42 1.7 3.5 0.00 0.00 0.00 95 1016.5
20260502060353 53 20 2.6 5.2 0.00 0.00 0.00 95 1016.4
20260502055851 54 37 1.7 3.5 0.00 0.00 0.00 95 1016.5
20260502055348 54 36 0.9 3.5 0.00 0.00 0.00 95 1016.3
20260502054848 54 69 1.7 4.3 0.00 0.00 0.00 96 1016.5
20260502054345 54 340 1.7 5.2 0.00 0.00 0.00 96 1016.1
20260502053842 54 348 3.5 4.3 0.00 0.00 0.00 96 1016.4
20260502053340 54 17 1.7 5.2 0.00 0.00 0.00 96 1016.4
20260502052837 54 18 3.5 5.2 0.00 0.00 0.00 96 1016.5
20260502052335 54 24 3.5 5.2 0.01 0.00 0.00 96 1016.6
20260502051833 54 353 2.6 5.2 0.02 0.00 0.00 96 1016.6
20260502051331 54 20 2.6 10.4 0.02 0.00 0.00 96 1016.6
20260502050827 54 37 2.6 7.8 0.03 0.00 0.00 96 1016.5
20260502050323 54 43 7.8 7.8 0.04 0.00 0.00 96 1016.4
20260502045821 54 36 3.5 6.1 0.04 2.42 2.42 97 1016.3
20260502045317 54 88 4.3 7.0 0.04 2.42 2.42 97 1016.2
20260502044815 55 33 3.5 10.4 0.04 2.42 2.42 97 1016.1
20260502044311 55 40 3.5 4.3 0.05 2.42 2.42 97 1015.8
20260502043808 55 21 2.6 8.7 0.05 2.42 2.42 97 1015.6
20260502043305 55 43 2.6 5.2 0.06 2.42 2.42 97 1015.1
20260502042805 55 358 1.7 3.5 0.06 2.41 2.41 97 1015.5
20260502042305 55 39 2.6 4.3 0.06 2.41 2.41 97 1015.2
20260502041800 55 20 5.2 7.8 0.06 2.40 2.40 97 1015.2
20260502041257 55 45 3.5 6.1 0.04 2.39 2.39 97 1014.8
20260502040754 55 25 1.7 5.2 0.04 2.39 2.39 97 1014.8
20260502040250 55 74 2.6 6.1 0.04 2.38 2.38 97 1014.8
20260502035746 55 358 1.7 4.3 0.04 2.38 2.38 97 1015.3
20260502035244 55 33 3.5 4.3 0.03 2.37 2.37 97 1015.5
20260502034741 55 34 4.3 7.8 0.03 2.37 2.37 97 1015.5
20260502034239 55 24 2.6 5.2 0.03 2.37 2.37 97 1015.6
20260502033737 55 20 3.5 7.0 0.02 2.36 2.36 97 1015.5
20260502033235 55 32 1.7 3.5 0.03 2.35 2.35 97 1015.3
20260502032731 55 356 2.6 7.8 0.02 2.35 2.35 97 1015.2
20260502032227 55 17 2.6 3.5 0.02 2.35 2.35 97 1015.5
20260502031725 55 355 1.7 6.1 0.02 2.35 2.35 97 1015.2
20260502031223 56 351 3.5 4.3 0.02 2.34 2.34 97 1015.1
20260502030722 56 356 1.7 3.5 0.02 2.34 2.34 97 1015.1
20260502030219 56 34 2.6 3.5 0.02 2.34 2.34 97 1014.8
20260502025716 56 17 1.7 5.2 0.02 2.34 2.34 97 1014.6
20260502025214 56 6 2.6 3.5 0.02 2.34 2.34 97 1014.7
20260502024711 56 49 3.5 5.2 0.02 2.34 2.34 97 1014.7
20260502024209 56 39 1.7 3.5 0.02 2.33 2.33 97 1014.7
20260502023707 56 97 1.7 3.5 0.01 2.33 2.33 97 1014.8
20260502023204 56 348 3.5 5.2 0.01 2.32 2.32 97 1014.8
20260502022701 56 45 2.6 5.2 0.01 2.32 2.32 97 1014.7
20260502022158 56 293 0.9 3.5 0.02 2.32 2.32 97 1014.7
20260502021655 56 326 1.7 4.3 0.02 2.32 2.32 97 1013.8
20260502021153 56 25 4.3 6.1 0.03 2.32 2.32 97 1013.3
20260502020649 56 8 4.3 7.8 0.04 2.32 2.32 97 1013.2
20260502020146 56 76 4.3 7.8 0.04 2.32 2.32 97 1012.8
20260502015644 56 353 4.3 7.0 0.05 2.32 2.32 97 1013.0
20260502015140 56 15 2.6 5.2 0.06 2.32 2.32 97 1012.6
20260502014638 56 88 0.9 5.2 0.07 2.31 2.31 97 1012.7
20260502014135 56 20 4.3 4.3 0.09 2.31 2.31 97 1012.5
20260502013631 56 21 2.6 6.1 0.11 2.31 2.31 97 1012.1
20260502013126 56 315 2.6 4.3 0.14 2.31 2.31 97 1011.9
20260502012624 56 31 2.6 5.2 0.14 2.31 2.31 97 1011.7
20260502012122 56 38 4.3 6.1 0.14 2.30 2.30 97 1011.8
20260502011618 56 349 0.9 7.0 0.14 2.29 2.29 97 1011.8
20260502011114 57 59 4.3 8.7 0.13 2.28 2.28 97 1011.8
20260502010612 57 33 3.5 5.2 0.12 2.28 2.28 97 1011.7
20260502010108 57 64 2.6 7.8 0.12 2.27 2.27 97 1011.7
20260502005606 57 19 1.7 5.2 0.11 2.26 2.26 97 1011.9
20260502005103 57 37 5.2 7.8 0.09 2.25 2.25 97 1011.9
20260502004559 57 43 3.5 7.0 0.07 2.23 2.23 97 1012.0
20260502004056 58 27 5.2 6.1 0.06 2.20 2.20 97 1012.2
20260502003554 58 19 4.3 7.8 0.04 2.17 2.17 97 1012.5
20260502003051 58 357 2.6 6.1 0.03 2.17 2.17 97 1012.5
20260502002547 58 355 2.6 7.0 0.04 2.16 2.16 97 1012.0
20260502002044 58 346 1.7 5.2 0.04 2.16 2.16 97 1011.5
20260502001542 58 38 1.7 5.2 0.05 2.15 2.15 97 1011.5
20260502001039 58 28 3.5 5.2 0.07 2.15 2.15 97 1011.3
20260502000537 58 23 2.6 4.3 0.09 2.15 2.15 97 1011.4
20260502000034 58 55 4.3 5.2 0.11 2.15 2.15 97 1011.0
20260501235530 58 5 5.2 5.2 0.11 2.15 2.15 97 1011.6
20260501235025 58 50 4.3 9.6 0.11 2.15 2.15 97 1011.6
20260501234521 59 28 3.5 6.1 0.12 2.15 2.15 98 1011.5
20260501234020 59 21 2.6 4.3 0.17 2.15 2.15 98 1011.3
20260501233518 59 62 3.5 4.3 0.19 2.14 2.14 98 1011.7
20260501233014 59 343 1.7 4.3 0.20 2.13 2.13 98 1011.9
20260501232510 59 57 2.6 3.5 0.22 2.11 2.11 98 1012.0
20260501232008 59 10 0.0 3.5 0.23 2.10 2.10 98 1012.5
20260501231506 59 39 2.6 4.3 0.24 2.09 2.09 98 1012.6
20260501231004 59 292 1.7 2.6 0.25 2.06 2.06 98 1012.2
20260501230502 59 50 1.7 3.5 0.27 2.05 2.05 98 1012.7
20260501225959 59 3 2.6 3.5 0.29 2.04 2.04 98 1012.5
20260501225457 59 18 1.7 3.5 0.32 2.04 2.04 98 1012.1
20260501224952 59 29 1.7 3.5 0.32 2.02 2.02 98 1012.4
20260501224450 59 330 5.2 5.2 0.33 2.00 2.00 98 1011.9
20260501223947 59 13 2.6 4.3 0.32 1.97 1.97 97 1011.6
20260501223443 59 49 2.6 5.2 0.32 1.94 1.94 97 1011.2
20260501222939 59 32 1.7 3.5 0.31 1.91 1.91 97 1011.3
20260501222436 59 80 3.5 5.2 0.30 1.89 1.89 97 1011.8
20260501221932 59 43 0.0 2.6 0.30 1.86 1.86 97 1011.7
20260501221430 59 29 1.7 2.6 0.30 1.83 1.83 97 1011.8
20260501220928 59 137 0.0 2.6 0.28 1.81 1.81 97 1011.7
20260501220425 59 39 0.9 3.5 0.26 1.77 1.77 97 1012.1
20260501215921 59 359 0.9 4.3 0.26 1.75 1.75 97 1012.3
20260501215418 60 26 1.7 5.2 0.25 1.72 1.72 97 1012.4
20260501214913 60 336 1.7 3.5 0.24 1.70 1.70 97 1012.3
20260501214409 60 5 0.0 1.7 0.22 1.67 1.67 97 1012.8
20260501213904 60 355 0.0 2.6 0.20 1.64 1.64 97 1012.5
20260501213401 60 308 0.9 1.7 0.20 1.62 1.62 97 1011.9
20260501212857 60 60 1.7 5.2 0.19 1.60 1.60 97 1011.4
20260501212354 59 13 0.9 2.6 0.18 1.58 1.58 97 1011.0
20260501211851 60 62 1.7 2.6 0.17 1.56 1.56 97 1011.0
20260501211348 60 341 1.7 2.6 0.17 1.53 1.53 97 1011.1
20260501210846 60 72 3.5 3.5 0.19 1.52 1.52 97 1011.3
20260501210343 60 72 1.7 2.6 0.20 1.50 1.50 97 1011.0
20260501205839 60 58 1.7 2.6 0.26 1.48 1.48 97 1011.1
20260501205336 60 22 0.9 3.5 0.28 1.47 1.47 97 1010.3
20260501204832 60 16 2.6 2.6 0.27 1.45 1.45 97 1009.8
20260501204329 60 63 1.7 4.3 0.26 1.45 1.45 97 1009.9
20260501203825 60 57 0.9 4.3 0.25 1.43 1.43 97 1009.8
20260501203323 60 81 3.5 5.2 0.24 1.42 1.42 97 1008.5
20260501202820 60 61 3.5 3.5 0.24 1.41 1.41 97 1009.2
20260501202317 60 58 1.7 5.2 0.23 1.40 1.40 96 1009.7
20260501201814 60 168 1.7 2.6 0.22 1.38 1.38 96 1010.0
20260501201310 60 14 2.6 3.5 0.18 1.35 1.35 96 1010.9
20260501200807 60 350 2.6 5.2 0.15 1.31 1.31 96 1010.9